User: anonymous   Login
Location: Caltech
(34.1382°N, 118.1253°W)
Time: 20:55:36
(UTC-08:00)
Language:

Iridium 91 - Orbit

View from above orbital plane
View from above orbital plane
View from above satellite
View from above satellite

Ground track
Ground track

The orbit data is extracted from the following two-line orbital elements,

1 27372U 02005A   16344.18556307  .00000020  00000-0  16056-6 0  9997
2 27372  86.3968   7.2665 0002186  93.0216 309.5714 14.34217806784393
Epoch (UTC): 09 December 2016 04:27:12
Eccentricity: 0.0002186
inclination: 86.3968°
perigee height: 776 km
apogee height: 779 km
right ascension of ascending node: 7.2665°
argument of perigee: 93.0216°
revolutions per day: 14.34217806
mean anomaly at epoch: 309.5714°
orbit number at epoch: 78439

The dashed part of the orbit path shows where the satellite is in the earth's shadow,  

DLR